Location: Bemmer
(51.5498°N, 5.6249°E)
Time: 02:32:33
(UTC+00:00)

CZ-4 R/B - Pass Details

Date: 03 March 2021
Orbit: 532 x 597 km, 97.7° (Epoch: 12 April)

Event Time Altitude Azimuth Distance (km) Brightness Sun altitude
Rises 18:03:31 0° 165° (SSE) 2,671 4.7 -7.3°
Reaches altitude 10° 18:05:36 10° 165° (SSE) 1,789 3.8 -7.6°
Maximum altitude 18:09:28 88° 256° (WSW) 549 1.3 -8.2°
Drops below altitude 10° 18:13:26 10° 346° (NNW) 1,830 4.2 -8.8°
Sets 18:15:35 0° 346° (NNW) 2,739 5.1 -9.2°
